Home   Weather   Brampton   Past weeks

Flag for Canada Past Weather in Brampton, Ontario, Canada — Yesterday and Last 2 Weeks

Now
57 °F

Broken clouds.


Feels Like: 54 °F
Forecast: 45 / 63 °F
Wind: 13 mph from Southwest

Location: Toronto Pearson International Airport

Current Time: Apr 28, 2017 at 12:01:03 pm

Latest Report: Apr 28, 2017 at 11:00 am


Visibility: 15 mi

Pressure: 29.99 "Hg

Humidity: 55%

Dew Point: 41 °F

Location of BramptonLocation

Past Weather in Brampton — Graph

°F

Brampton Temperature Yesterday

Maximum temperature yesterday: 77 °F (at 4:00 pm)
Minimum temperature yesterday: 48 °F (at 5:00 am)
Average temperature yesterday: 62 °F

High & Low Weather Summary for the Past Weeks

 TemperatureHumidityPressure
High77 °F (Apr 27, 4:00 pm)100% (Apr 15, 1:00 pm)30.53 "Hg (Apr 15, 1:00 pm)
Low32 °F (Apr 18, 3:00 am)21% (Apr 14, 4:00 pm)29.50 "Hg (Apr 27, 5:00 pm)
Average50 °F68%30.02 "Hg
* Reported Apr 13 10:00 am — Apr 28 10:00 am, Brampton, Weather by CustomWeather, © 2017

Note: Actual official high and low records may vary slightly from our data, if they occured in-between our weather recording intervals... More about our weather records

Advertising

Brampton Weather History for the Previous 24 Hours

Scroll right to see more
 ConditionsComfort  
Time TempWeatherWind HumidityBarometerVisibility
10:00 am
Fri, Apr 28
55 °FBroken clouds.15 mph55%29.99 "Hg15 mi
9:00 am54 °FBroken clouds.13 mph58%29.98 "Hg15 mi
8:00 am52 °FBroken clouds.8 mph72%29.97 "Hg15 mi
7:00 am48 °FBroken clouds.6 mph71%29.94 "Hg15 mi
6:00 am48 °FPassing clouds.3 mph71%29.91 "Hg15 mi
5:00 am50 °FPassing clouds.9 mph67%29.88 "Hg15 mi
4:00 am52 °FPartly cloudy.14 mph67%29.86 "Hg15 mi
3:00 am52 °FPassing clouds.10 mph77%29.82 "Hg15 mi
2:00 am54 °FPassing clouds.13 mph72%29.80 "Hg15 mi
1:00 am55 °FPassing clouds.16 mph72%29.78 "Hg15 mi
12:00 am59 °FPassing clouds.16 mph77%29.72 "Hg15 mi
11:00 pm
Thu, Apr 27
61 °FPassing clouds.12 mph88%29.66 "Hg15 mi
10:00 pm61 °FMostly cloudy.7 mph94%29.64 "Hg15 mi
9:00 pm63 °FPartly cloudy.7 mph94%29.62 "Hg12 mi
8:00 pm63 °FSprinkles. Broken clouds.3 mph94%29.60 "Hg12 mi
7:44 pm64 °FSprinkles. Cloudy.6 mph88%29.61 "Hg10 mi
7:27 pm64 °FStrong thunderstorms. Fog.10 mph88%29.60 "Hg6 mi
7:09 pm64 °FThunderstorms. Mostly cloudy.8 mph88%29.59 "Hg10 mi
7:00 pm64 °FStrong thunderstorms. Fog.12 mph88%29.59 "Hg5 mi
6:22 pm68 °FThunderstorms. Mostly cloudy.21 mph73%29.59 "Hg15 mi
6:00 pm70 °FBroken clouds.21 mph64%29.57 "Hg12 mi
5:00 pm77 °FScattered showers. Broken clouds.10 mph54%29.50 "Hg15 mi
4:00 pm77 °FBroken clouds.8 mph54%29.54 "Hg15 mi
3:00 pm75 °FBroken clouds.8 mph57%29.58 "Hg15 mi
2:00 pm73 °FBroken clouds.12 mph61%29.60 "Hg15 mi
1:00 pm70 °FBroken clouds.13 mph64%29.61 "Hg15 mi
12:00 pm70 °FPartly sunny.9 mph69%29.63 "Hg15 mi
Weather by CustomWeather, © 2017

See weather overviewHow to use our weather pages